Regional Weather Roundup
Issued by NWS

Home | Current Version | Previous Version | Graphics & Text | Print | Product List | Glossary On
Versions: 1 2 3 4 5 6 7 8 9 10 11 12 13 14 15 16 17 18 19 20 21 22 23 24 25 26 27 28 29 30 31 32 33 34 35 36 37 38 39 40 41 42 43 44 45 46 47 48 49 50
436
ASUS45 KBOU 241107
RWRCO

WEATHER ROUNDUP FOR COLORADO
NATIONAL WEATHER SERVICE DENVER/BOULDER CO
500 AM MDT SAT JUN 24 2017

NOTE: "FAIR" INDICATES FEW OR NO CLOUDS BELOW 12000 FEET WITH NO
SIGNIFICANT WEATHER AND/OR OBSTRUCTIONS TO VISIBILITY.

COZ001>005-013-030-031-241200-
...NORTHWEST COLORADO...

CITY           SKY/WX    TMP DP  RH WIND       PRES   REMARKS
CRAIG          FAIR      40  34  79 CALM      30.28R
HAYDEN         FAIR      41  30  65 CALM      30.28R
MEEKER         FAIR      43  33  68 VRB5      30.28R
RABBIT EARS PA FAIR      43  27  52 W7        30.48R
STEAMBOAT SPGS FAIR      40  33  77 CALM      30.29R
WALDEN         FAIR      34  28  80 S5        30.37R WCI  30
$$

COZ006>008-011-241200-
...WEST CENTRAL VALLEYS...

CITY           SKY/WX    TMP DP  RH WIND       PRES   REMARKS
GRAND JUNCTION FAIR      64  24  21 E3        30.12R
MONTROSE       FAIR      55  28  35 SE10      30.20R
EAGLE          FAIR      44  27  51 E5        30.32R
RIFLE          FAIR      52  30  43 CALM      30.21R
DELTA          FAIR      57  26  30 CALM      30.16R
NUCLA          NOT AVBL
$$

COZ017>023-064>068-241200-
...SOUTHWEST COLORADO...

CITY           SKY/WX    TMP DP  RH WIND       PRES   REMARKS
DURANGO        FAIR      50  25  37 N8        30.25R
CORTEZ         FAIR      47  28  47 NE5       30.20R
PAGOSA SPRINGS FAIR      49  20  32 NE8       30.34R
TELLURIDE      FAIR      51  21  31 SE8       30.44R
WOLF CREEK PAS FAIR      48  10  21 SW9       30.65S
$$

COZ009-010-012-014-032>034-037-058>063-241200-
...CENTRAL COLORADO...

CITY           SKY/WX    TMP DP  RH WIND       PRES   REMARKS
ASPEN          FAIR      44  29  55 S7        30.33R
BUENA VISTA    CLOUDY    52  43  73 E5        30.41R
COPPER MTN     FAIR      46  19  34 W13       30.58S
BERTHOUD PASS  FAIR      37  27  65 NW23      30.58S
COTTONWOOD PAS CLOUDY    45  41  87 CALM      30.49S
GUNNISON       FAIR      41  31  67 NE3       30.35R
KREMMLING      NOT AVBL
LEADVILLE      CLOUDY    42  37  82 NW3       30.48S
MONARCH PASS   FAIR      45  21  39 W16       30.69S
SALIDA         CLOUDY    53  47  79 CALM      30.46S
SUNLIGHT       FAIR      48  19  32 NW5       30.54S
WILKERSON PASS HVY SNOW  36  34  93 SW7       30.56S VSB<1/4
$$

COZ069>075-241200-
...SAN LUIS VALLEY/SANGRE DE CRISTO MOUNTAINS...

CITY           SKY/WX    TMP DP  RH WIND       PRES   REMARKS
ALAMOSA        FAIR      45  41  86 NE7       30.33S
DEL NORTE      FAIR      42  34  72 W7        30.36S
LA VETA PASS   FAIR      43  41  93 SW14      30.59F
SAGUACHE       FAIR      43  32  65 CALM      30.36R
$$

COZ035-036-038>040-241200-
...NORTHERN COLORADO FRONT RANGE...

CITY           SKY/WX    TMP DP  RH WIND       PRES   REMARKS
DENVER INTL AP MOCLDY    52  48  86 E6        30.28F
DMNS CITY PARK   N/A     47  46  96 E8        30.28S
AURORA         MOCLDY    51  48  91 SE3       30.30S
FRONT RANGE AP CLOUDY    55  52  88 E8        30.30S
ERIE MUNI ARPT FAIR      48  46  91 NE3       30.29R
BOULDER MUN AP FAIR      48  46  93 NW3       30.29S
CENTENNIAL     FAIR      50  48  93 S6        30.29F
BROOMFIELD     FAIR      50  45  81 NW7       30.30S
FORT COLLINS   CLOUDY    53  48  83 CALM      30.30S
LONGMONT       FAIR      52  49  89 N5        30.31R
$$

COZ041-046-047-076>085-087-088-241200-
...PIKES PEAK/PALMER DIVIDE AND SOUTHERN FOOTHILLS...

CITY           SKY/WX    TMP DP  RH WIND       PRES   REMARKS
COLO. SPRINGS  CLOUDY    55  49  80 SE9       30.33F
A. F. ACADEMY  CLOUDY    53  47  82 S5        30.33F
SCHRIEVER AFB  CLOUDY    53  48  82 SE7       30.34F
CHEYENNE MTN   FAIR      52  42  71 S14       30.30S
ELLICOTT       CLOUDY   N/A N/A N/A SW5       30.32F
FALCON           N/A     51  48  90 S10       30.36F
FORT CARSON    CLOUDY    57  47  68 S8        30.31F
LIMON          CLOUDY    55  46  71 CALM      30.30F
MONUMENT HILL  FAIR      45  45 100 S8        30.36S
CANON CITY     CLOUDY    57  54  88 CALM      30.31S
WALSENBURG     CLOUDY    55  52  88 CALM      30.33F
TRINIDAD       CLOUDY    57  47  69 NW6       30.32F
$$

COZ042>045-048>051-090-091-241200-
...NORTHEAST COLORADO...

CITY           SKY/WX    TMP DP  RH WIND       PRES   REMARKS
GREELEY ARPT   FAIR      53  47  79 SE3       30.29F
AKRON          FAIR      46  37  71 CALM      30.29S
BURLINGTON     FAIR      50  46  86 S6        30.27S
WRAY           FAIR      46  41  81 N7        30.26R
YUMA           FAIR      50  39  66 CALM      30.27S
STERLING       FAIR      52  43  71 CALM      30.27R
HOLYOKE        NOT AVBL
FORT MORGAN    FAIR      48  46  93 NE7       30.29S
$$

COZ086-089-092>099-241200-
...SOUTHEAST COLORADO...

CITY           SKY/WX    TMP DP  RH WIND       PRES   REMARKS
PUEBLO         CLOUDY    60  53  77 W3        30.27F
LA JUNTA       CLOUDY    64  47  53 S5        30.26F
LAMAR          CLOUDY    62  49  62 CALM      30.23S
SPRINGFIELD      N/A     59  51  75 CALM      30.27S
$$




USA.gov is the U.S. government's official web portal to all federal, state and local government web resources and services.